• In Kazakhstan
  • List of Countries
  • For 7 days
  • Water Temperature
  • Weather Map
  • News
  • Weather Widgets
  • user-avatar
    Login

    Hourly Weather Gori

    Today, 17 September, Tuesday

    Time Temperature Precipitation Wind Pressure Humidity
    00:00 +16°C° 0 mm 1 mps 699 mmHg 90%
    01:00 +15°C° 0 mm 1 mps 699 mmHg 90%
    02:00 +15°C° 0 mm 1 mps 699 mmHg 90%
    03:00 +15°C° 0 mm 1 mps 699 mmHg 89%
    04:00 +15°C° 0 mm 1 mps 699 mmHg 89%
    05:00 +15°C° 0 mm 1 mps 699 mmHg 89%
    06:00 +15°C° 0 mm 1 mps 698 mmHg 88%
    07:00 +18°C° 0 mm 1 mps 699 mmHg 80%
    08:00 +19°C° 0 mm 2 mps 699 mmHg 71%
    09:00 +23°C° 0 mm 2 mps 699 mmHg 63%
    10:00 +24°C° 0.2 mm 3 mps 699 mmHg 58%
    11:00 +26°C° 0.2 mm 4 mps 699 mmHg 54%
    12:00 +27°C° 0.2 mm 4 mps 699 mmHg 49%
    13:00 +26°C° 0.6 mm 5 mps 699 mmHg 53%
    14:00 +25°C° 0.6 mm 5 mps 698 mmHg 56%
    15:00 +23°C° 0.6 mm 5 mps 698 mmHg 59%
    16:00 +22°C° 0.8 mm 5 mps 698 mmHg 69%
    17:00 +20°C° 0.8 mm 4 mps 698 mmHg 79%
    18:00 +18°C° 0.8 mm 3 mps 698 mmHg 89%
    19:00 +18°C° 0.2 mm 3 mps 699 mmHg 90%
    20:00 +17°C° 0.2 mm 3 mps 699 mmHg 91%
    21:00 +17°C° 0.2 mm 4 mps 700 mmHg 92%
    22:00 +16°C° 0 mm 3 mps 700 mmHg 93%
    23:00 +16°C° 0 mm 3 mps 699 mmHg 94%

    Tomorrow, 18 September, Wednesday

    Time Temperature Precipitation Wind Pressure Humidity
    00:00 +16°C° 0 mm 3 mps 699 mmHg 94%
    01:00 +16°C° 0 mm 3 mps 700 mmHg 94%
    02:00 +15°C° 0 mm 4 mps 700 mmHg 94%
    03:00 +14°C° 0 mm 4 mps 700 mmHg 94%
    04:00 +14°C° 0 mm 3 mps 700 mmHg 94%
    05:00 +14°C° 0 mm 3 mps 700 mmHg 94%
    06:00 +13°C° 0 mm 3 mps 700 mmHg 94%
    07:00 +16°C° 0 mm 3 mps 701 mmHg 84%
    08:00 +18°C° 0 mm 4 mps 701 mmHg 73%
    09:00 +20°C° 0 mm 4 mps 702 mmHg 62%
    10:00 +22°C° 0 mm 4 mps 702 mmHg 51%
    11:00 +25°C° 0 mm 5 mps 702 mmHg 39%
    12:00 +27°C° 0 mm 5 mps 702 mmHg 28%
    13:00 +27°C° 0 mm 5 mps 702 mmHg 27%
    14:00 +28°C° 0 mm 5 mps 702 mmHg 26%
    15:00 +28°C° 0 mm 5 mps 701 mmHg 24%
    16:00 +26°C° 0 mm 4 mps 701 mmHg 30%
    17:00 +24°C° 0 mm 3 mps 701 mmHg 36%
    18:00 +21°C° 0 mm 2 mps 700 mmHg 42%
    19:00 +20°C° 0 mm 2 mps 701 mmHg 46%
    20:00 +19°C° 0 mm 1 mps 701 mmHg 49%
    21:00 +18°C° 0 mm 1 mps 701 mmHg 53%
    22:00 +18°C° 0 mm 1 mps 701 mmHg 54%
    23:00 +16°C° 0 mm 1 mps 701 mmHg 55%

    Day after tomorrow, 19 September, Thursday

    Time Temperature Precipitation Wind Pressure Humidity
    00:00 +16°C° 0 mm 1 mps 701 mmHg 56%
    01:00 +16°C° 0 mm 1 mps 701 mmHg 55%
    02:00 +15°C° 0 mm 1 mps 701 mmHg 55%
    03:00 +15°C° 0 mm 1 mps 701 mmHg 54%
    04:00 +15°C° 0 mm 1 mps 701 mmHg 53%
    05:00 +15°C° 0 mm 1 mps 701 mmHg 52%
    06:00 +14°C° 0 mm 1 mps 700 mmHg 51%
    07:00 +18°C° 0 mm 1 mps 701 mmHg 45%
    08:00 +21°C° 0 mm 1 mps 702 mmHg 38%
    09:00 +24°C° 0 mm 2 mps 702 mmHg 32%
    10:00 +26°C° 0 mm 3 mps 702 mmHg 28%
    11:00 +28°C° 0 mm 5 mps 702 mmHg 24%
    12:00 +30°C° 0 mm 7 mps 702 mmHg 20%
    13:00 +29°C° 0 mm 7 mps 702 mmHg 23%
    14:00 +29°C° 0 mm 7 mps 702 mmHg 25%
    15:00 +28°C° 0 mm 7 mps 702 mmHg 28%
    16:00 +26°C° 0 mm 6 mps 701 mmHg 39%
    17:00 +23°C° 0 mm 5 mps 701 mmHg 49%
    18:00 +20°C° 0 mm 3 mps 701 mmHg 60%
    19:00 +19°C° 0 mm 3 mps 701 mmHg 66%
    20:00 +18°C° 0 mm 2 mps 701 mmHg 73%
    21:00 +16°C° 0 mm 1 mps 701 mmHg 79%
    22:00 +16°C° 0 mm 1 mps 701 mmHg 78%
    23:00 +16°C° 0 mm 1 mps 701 mmHg 76%

    20 September, Friday

    Time Temperature Precipitation Wind Pressure Humidity
    00:00 +15°C° 0 mm 1 mps 701 mmHg 74%
    01:00 +15°C° 0 mm 1 mps 701 mmHg 74%
    02:00 +15°C° 0 mm 1 mps 700 mmHg 74%
    03:00 +14°C° 0 mm 2 mps 700 mmHg 73%
    04:00 +14°C° 0 mm 2 mps 700 mmHg 73%
    05:00 +14°C° 0 mm 2 mps 699 mmHg 74%
    06:00 +14°C° 0 mm 2 mps 699 mmHg 74%
    07:00 +16°C° 0 mm 3 mps 699 mmHg 70%
    08:00 +18°C° 0 mm 4 mps 699 mmHg 67%
    09:00 +21°C° 0 mm 5 mps 699 mmHg 63%
    10:00 +22°C° 0 mm 5 mps 699 mmHg 59%
    11:00 +23°C° 0 mm 6 mps 698 mmHg 55%
    12:00 +26°C° 0 mm 6 mps 698 mmHg 50%
    13:00 +26°C° 0 mm 6 mps 698 mmHg 49%
    14:00 +26°C° 0 mm 5 mps 697 mmHg 48%
    15:00 +27°C° 0 mm 5 mps 697 mmHg 48%
    16:00 +25°C° 0 mm 4 mps 697 mmHg 56%
    17:00 +22°C° 0 mm 3 mps 696 mmHg 64%
    18:00 +19°C° 0 mm 2 mps 696 mmHg 73%
    19:00 +19°C° 0 mm 3 mps 696 mmHg 77%
    20:00 +18°C° 0 mm 3 mps 697 mmHg 81%
    21:00 +17°C° 0 mm 3 mps 697 mmHg 85%
    22:00 +17°C° 0 mm 3 mps 697 mmHg 86%
    23:00 +17°C° 0 mm 3 mps 697 mmHg 86%

    21 September, Saturday

    Time Temperature Precipitation Wind Pressure Humidity
    00:00 +17°C° 0 mm 3 mps 697 mmHg 87%
    01:00 +15°C° 0 mm 4 mps 697 mmHg 88%
    02:00 +15°C° 0 mm 4 mps 697 mmHg 89%
    03:00 +15°C° 0 mm 4 mps 697 mmHg 90%
    04:00 +14°C° 0 mm 4 mps 697 mmHg 89%
    05:00 +14°C° 0 mm 4 mps 696 mmHg 88%
    06:00 +14°C° 0 mm 4 mps 696 mmHg 88%
    07:00 +14°C° 0 mm 5 mps 697 mmHg 83%
    08:00 +15°C° 0 mm 5 mps 697 mmHg 78%
    09:00 +15°C° 0 mm 6 mps 697 mmHg 73%
    10:00 +16°C° 0 mm 6 mps 697 mmHg 69%
    11:00 +17°C° 0 mm 7 mps 697 mmHg 64%
    12:00 +17°C° 0 mm 7 mps 697 mmHg 60%
    13:00 +16°C° 0.1 mm 7 mps 697 mmHg 65%
    14:00 +14°C° 0.1 mm 7 mps 697 mmHg 70%
    15:00 +12°C° 0.1 mm 7 mps 697 mmHg 74%
    16:00 +11°C° 0.1 mm 8 mps 697 mmHg 76%
    17:00 +10°C° 0.1 mm 8 mps 697 mmHg 79%
    18:00 +8°C° 0.1 mm 9 mps 698 mmHg 81%
    19:00 +7°C° 0.1 mm 8 mps 698 mmHg 82%
    20:00 +7°C° 0.1 mm 8 mps 699 mmHg 82%
    21:00 +6°C° 0.1 mm 8 mps 699 mmHg 83%
    22:00 +6°C° 0.1 mm 8 mps 700 mmHg 83%
    23:00 +6°C° 0.1 mm 8 mps 700 mmHg 84%

    22 September, Sunday

    Time Temperature Precipitation Wind Pressure Humidity
    00:00 +5°C° 0.1 mm 8 mps 700 mmHg 84%
    01:00 +5°C° 0 mm 7 mps 700 mmHg 84%
    02:00 +5°C° 0 mm 7 mps 701 mmHg 84%
    03:00 +5°C° 0 mm 6 mps 701 mmHg 84%
    04:00 +5°C° 0 mm 6 mps 701 mmHg 84%
    05:00 +5°C° 0 mm 5 mps 701 mmHg 84%
    06:00 +5°C° 0 mm 5 mps 702 mmHg 85%
    07:00 +7°C° 0 mm 5 mps 702 mmHg 76%
    08:00 +8°C° 0 mm 6 mps 702 mmHg 67%
    09:00 +9°C° 0 mm 7 mps 702 mmHg 59%
    10:00 +10°C° 0 mm 7 mps 702 mmHg 55%
    11:00 +11°C° 0 mm 7 mps 702 mmHg 52%
    12:00 +12°C° 0 mm 7 mps 702 mmHg 49%
    13:00 +14°C° 0 mm 7 mps 702 mmHg 49%
    14:00 +13°C° 0 mm 8 mps 702 mmHg 48%
    15:00 +13°C° 0 mm 8 mps 702 mmHg 48%
    16:00 +11°C° 0 mm 7 mps 702 mmHg 57%
    17:00 +10°C° 0 mm 6 mps 702 mmHg 66%
    18:00 +8°C° 0 mm 5 mps 702 mmHg 75%
    19:00 +8°C° 0 mm 5 mps 703 mmHg 78%
    20:00 +7°C° 0 mm 4 mps 704 mmHg 81%
    21:00 +8°C° 0 mm 3 mps 704 mmHg 84%
    22:00 +8°C° 0.1 mm 3 mps 704 mmHg 85%
    23:00 +8°C° 0.1 mm 2 mps 705 mmHg 85%
    Show more